Meridianville, AL

7:44 PM CST on February 23, 2017 (GMT -0600)
Huntsville Madison

Weather History for KMDQ - March, 2014

Change the Weather History Date:

Friday, March 28, 2014

  Actual Average (KHSV) Record (KHSV)
Temperature  
Mean Temperature 58 °F -  
Max Temperature 64 °F 69 °F 87 °F (1910)
Min Temperature 51 °F 44 °F 25 °F (1926)
Degree Days  
Heating Degree Days 8    
Growing Degree Days 8 (Base 50)    
Moisture  
Dew Point 49 °F    
Average Humidity 72    
Maximum Humidity 82    
Minimum Humidity 56    
Precipitation  
Precipitation 0.01 in - - ()
Sea Level Pressure  
Sea Level Pressure 30.00 in    
Wind  
Wind Speed 7 mph (SE)    
Max Wind Speed 15 mph    
Max Gust Speed 22 mph    
Visibility 10 miles    
Events Rain    
Averages and records for this station are not official NWS values.
T = Trace of Precipitation, MM = Missing Value Source: NWS Daily Summary

Daily Weather History Graph

Daily Weather History Graph

Search for Another Location

Airport or City:

Trip Planner

Search our weather history database for the weather conditions in past years. The results will help you decide how hot, cold, wet, or windy it might be!

Date:

Astronomy

Mar. 28, 2014 Rise Set
Actual Time 6:38 AM CDT 7:04 PM CDT
Civil Twilight 6:13 AM CDT 7:29 PM CDT
Nautical Twilight 5:43 AM CDT 7:59 PM CDT
Astronomical Twilight 5:13 AM CDT 8:29 PM CDT
Moon 5:03 AM CDT (3/28) 5:04 PM CDT (3/28)
Length of Visible Light 13h 16m
Length of Day
12h 25m
Waning Crescent, 6% of the Moon is Illuminated
Mar 28
Waning Crescent
Mar 30
New
Apr 7
First Quarter
Apr 15
Full
Apr 22
Last Quarter

Hourly Weather History & Observations

Time (CDT) Temp. Dew Point Humidity Pressure Visibility Wind Dir Wind Speed Gust Speed Precip Events Conditions
12:15 AM 51.8 °F 44.6 °F 76% 30.04 in 10.0 mi SE 6.9 mph - N/A Rain Light Rain
12:35 AM 51.8 °F 44.6 °F 76% 30.02 in 10.0 mi SE 10.4 mph 17.3 mph N/A   Mostly Cloudy
12:55 AM 51.8 °F 44.6 °F 76% 30.03 in 10.0 mi SSE 9.2 mph - 0.01 in   Mostly Cloudy
1:15 AM 53.6 °F 44.6 °F 72% 30.01 in 10.0 mi SSE 9.2 mph - N/A   Mostly Cloudy
1:35 AM 53.6 °F 44.6 °F 72% 30.00 in 10.0 mi SE 8.1 mph - N/A   Light Drizzle
1:55 AM 53.6 °F 44.6 °F 72% 29.98 in 10.0 mi SE 12.7 mph 19.6 mph N/A   Mostly Cloudy
2:15 AM 55.4 °F 46.4 °F 72% 29.99 in 10.0 mi SSE 15.0 mph 21.9 mph N/A   Scattered Clouds
2:35 AM 55.4 °F 46.4 °F 72% 29.97 in 10.0 mi SE 10.4 mph 16.1 mph N/A   Overcast
2:55 AM 55.4 °F 48.2 °F 77% 29.96 in 10.0 mi SE 6.9 mph - N/A   Overcast
3:15 AM 55.4 °F 48.2 °F 77% 29.96 in 10.0 mi SSE 6.9 mph - N/A   Light Drizzle
3:35 AM 55.4 °F 50.0 °F 82% 29.97 in 10.0 mi SSE 4.6 mph - N/A   Overcast
3:55 AM 55.4 °F 50.0 °F 82% 29.96 in 10.0 mi Calm Calm - N/A   Overcast
4:15 AM 55.4 °F 50.0 °F 82% 29.96 in 10.0 mi South 5.8 mph - N/A   Overcast
4:35 AM 57.2 °F 50.0 °F 77% 29.96 in 10.0 mi South 4.6 mph - N/A   Overcast
4:55 AM 57.2 °F 50.0 °F 77% 29.96 in 10.0 mi SSE 5.8 mph - N/A   Overcast
5:15 AM 57.2 °F 50.0 °F 77% 29.96 in 10.0 mi SE 3.5 mph - N/A   Overcast
5:35 AM 57.2 °F 50.0 °F 77% 29.97 in 10.0 mi SSE 8.1 mph - N/A   Overcast
5:55 AM 57.2 °F 50.0 °F 77% 29.98 in 10.0 mi SSE 8.1 mph - N/A   Overcast
6:15 AM 57.2 °F 50.0 °F 77% 30.00 in 10.0 mi SE 5.8 mph - N/A   Overcast
6:35 AM 57.2 °F 50.0 °F 77% 30.00 in 10.0 mi SE 5.8 mph - N/A   Overcast
7:15 AM 57.2 °F 50.0 °F 77% 30.01 in 10.0 mi SSE 6.9 mph - N/A   Overcast
7:35 AM 57.2 °F 50.0 °F 77% 30.02 in 10.0 mi SE 9.2 mph - N/A   Mostly Cloudy
7:55 AM 57.2 °F 50.0 °F 77% 30.01 in 10.0 mi SE 8.1 mph - N/A   Mostly Cloudy
8:15 AM 57.2 °F 50.0 °F 77% 30.03 in 10.0 mi SE 6.9 mph - N/A   Mostly Cloudy
8:35 AM 57.2 °F 50.0 °F 77% 30.03 in 10.0 mi SSE 8.1 mph - N/A   Mostly Cloudy
8:55 AM 57.2 °F 50.0 °F 77% 30.03 in 10.0 mi SE 11.5 mph - N/A   Overcast
9:15 AM 57.2 °F 50.0 °F 77% 30.04 in 10.0 mi SSE 10.4 mph - N/A   Overcast
9:35 AM 59.0 °F 51.8 °F 77% 30.04 in 10.0 mi SSE 9.2 mph - N/A   Overcast
9:55 AM 59.0 °F 51.8 °F 77% 30.04 in 10.0 mi SE 10.4 mph - N/A   Mostly Cloudy
10:15 AM 59.0 °F 51.8 °F 77% 30.06 in 10.0 mi SSE 9.2 mph - N/A   Mostly Cloudy
10:35 AM 59.0 °F 51.8 °F 77% 30.05 in 10.0 mi SSE 5.8 mph - N/A   Overcast
10:55 AM 60.8 °F 51.8 °F 72% 30.05 in 10.0 mi SSE 8.1 mph - N/A   Overcast
11:15 AM 60.8 °F 51.8 °F 72% 30.04 in 10.0 mi SE 11.5 mph 16.1 mph N/A   Overcast
11:35 AM 60.8 °F 51.8 °F 72% 30.05 in 10.0 mi SSE 10.4 mph - N/A   Overcast
11:55 AM 60.8 °F 50.0 °F 68% 30.05 in 10.0 mi SSE 8.1 mph - N/A   Overcast
12:15 PM 62.6 °F 50.0 °F 63% 30.04 in 10.0 mi SSE 9.2 mph - N/A   Overcast
12:35 PM 62.6 °F 50.0 °F 63% 30.03 in 10.0 mi SE 6.9 mph - N/A   Overcast
12:55 PM 62.6 °F 50.0 °F 63% 30.03 in 10.0 mi SSE 9.2 mph - N/A   Overcast
1:15 PM 62.6 °F 50.0 °F 63% 30.02 in 10.0 mi SE 4.6 mph - N/A   Overcast
1:35 PM 62.6 °F 50.0 °F 63% 30.02 in 10.0 mi SE 6.9 mph - N/A   Overcast
1:55 PM 62.6 °F 50.0 °F 63% 30.03 in 10.0 mi SSE 6.9 mph 10.4 mph N/A   Overcast
2:15 PM 62.6 °F 50.0 °F 63% 30.02 in 10.0 mi SE 11.5 mph - N/A   Overcast
2:35 PM 62.6 °F 50.0 °F 63% 30.01 in 10.0 mi SE 10.4 mph - N/A   Overcast
2:55 PM 64.4 °F 50.0 °F 59% 30.01 in 10.0 mi SSE 8.1 mph - N/A   Overcast
3:15 PM 64.4 °F 50.0 °F 59% 30.00 in 10.0 mi SE 8.1 mph - N/A   Mostly Cloudy
3:35 PM 64.4 °F 50.0 °F 59% 30.00 in 10.0 mi SE 8.1 mph - N/A   Mostly Cloudy
3:55 PM 64.4 °F 50.0 °F 59% 29.99 in 10.0 mi SE 8.1 mph - N/A   Mostly Cloudy
4:15 PM 64.4 °F 50.0 °F 59% 30.00 in 10.0 mi SE 8.1 mph - N/A   Mostly Cloudy
4:35 PM 64.4 °F 50.0 °F 59% 29.99 in 10.0 mi SE 8.1 mph - N/A   Mostly Cloudy
4:55 PM 64.4 °F 50.0 °F 59% 29.98 in 10.0 mi SE 4.6 mph - N/A   Scattered Clouds
5:15 PM 64.4 °F 50.0 °F 59% 29.98 in 10.0 mi SE 6.9 mph - N/A   Clear
5:35 PM 64.4 °F 48.2 °F 56% 29.99 in 10.0 mi SSE 6.9 mph - N/A   Clear
5:55 PM 64.4 °F 50.0 °F 59% 29.98 in 10.0 mi ESE 5.8 mph - N/A   Clear
6:15 PM 62.6 °F 50.0 °F 63% 29.99 in 10.0 mi SE 6.9 mph - N/A   Clear
6:35 PM 62.6 °F 48.2 °F 59% 29.99 in 10.0 mi SE 4.6 mph - N/A   Clear
6:55 PM 62.6 °F 50.0 °F 63% 29.99 in 10.0 mi ESE 4.6 mph - N/A   Clear
7:15 PM 60.8 °F 50.0 °F 68% 29.97 in 10.0 mi Calm Calm - N/A   Clear
7:35 PM 60.8 °F 50.0 °F 68% 29.98 in 10.0 mi SE 4.6 mph - N/A   Clear
7:55 PM 59.0 °F 48.2 °F 67% 29.97 in 10.0 mi Calm Calm - N/A   Clear
8:15 PM 59.0 °F 50.0 °F 72% 29.97 in 10.0 mi Calm Calm - N/A   Clear
8:35 PM 57.2 °F 48.2 °F 72% 29.98 in 10.0 mi Calm Calm - N/A   Clear
8:55 PM 55.4 °F 50.0 °F 82% 29.99 in 10.0 mi Calm Calm - N/A   Clear
9:15 PM 53.6 °F 48.2 °F 82% 30.00 in 10.0 mi Calm Calm - N/A   Clear
9:35 PM 55.4 °F 50.0 °F 82% 30.01 in 10.0 mi Calm Calm - N/A   Clear
9:55 PM 53.6 °F 48.2 °F 82% 30.03 in 10.0 mi Calm Calm - N/A   Clear
10:15 PM 53.6 °F 48.2 °F 82% 30.02 in 10.0 mi Calm Calm - N/A   Clear
10:35 PM 53.6 °F 48.2 °F 82% 30.01 in 10.0 mi Calm Calm - N/A   Clear
10:55 PM 55.4 °F 50.0 °F 82% 29.99 in 10.0 mi ESE 4.6 mph - N/A   Clear
11:15 PM 57.2 °F 50.0 °F 77% 29.98 in 10.0 mi SE 4.6 mph - N/A   Clear
11:35 PM 59.0 °F 50.0 °F 72% 29.97 in 10.0 mi SE 6.9 mph - N/A   Clear
11:55 PM 57.2 °F 50.0 °F 77% 29.96 in 10.0 mi SE 5.8 mph - N/A   Clear